CDT,Max TemperatureF,Mean TemperatureF,Min TemperatureF,Max Dew PointF,MeanDew PointF,Min DewpointF,Max Humidity, Mean Humidity, Min Humidity, Max Sea Level PressureIn, Mean Sea Level PressureIn, Min Sea Level PressureIn, Max VisibilityMiles, Mean VisibilityMiles, Min VisibilityMiles, Max Wind SpeedMPH, Mean Wind SpeedMPH, Max Gust SpeedMPH,PrecipitationIn, CloudCover, Events, WindDirDegrees
2012-3-1,86,78,70,70,69,67,100,79,58,29.93,29.84,29.73,10,8,2,29,16,32,0.00,6,,165
2012-3-2,88,78,67,70,68,66,100,78,55,29.72,29.69,29.63,10,8,1,17,11,22,0.00,5,,153
2012-3-3,74,65,55,70,43,21,93,54,15,30.22,29.94,29.70,10,9,5,31,18,39,T,4,Rain,5
2012-3-4,77,60,43,46,36,26,76,46,15,30.32,30.24,30.18,10,10,10,23,9,28,0.00,0,,192
2012-3-5,77,64,51,57,51,46,89,63,36,30.35,30.29,30.25,10,10,10,25,13,31,0.00,1,,129
2012-3-6,80,71,61,63,57,52,78,59,39,30.25,30.12,30.04,10,10,10,37,21,52,0.00,3,,143
2012-3-7,80,75,69,70,66,61,87,73,58,30.04,29.95,29.88,10,10,9,38,25,46,0.00,7,,151
2012-3-8,84,78,71,70,69,68,93,79,65,30.08,29.94,29.83,10,8,2,36,21,44,0.02,7,Rain,143
2012-3-9,73,61,49,56,48,46,96,90,83,30.29,30.23,30.08,10,6,2,25,18,29,0.09,8,Rain,340
2012-3-10,56,52,48,54,49,46,93,90,86,30.25,30.15,30.04,10,6,1,16,8,18,0.06,8,Rain-Thunderstorm,323
2012-3-11,75,65,55,60,55,52,93,79,64,30.12,30.04,29.99,10,8,2,20,8,22,0.19,6,Rain,282
2012-3-12,79,68,56,70,64,55,100,87,74,30.12,30.06,30.01,10,5,0,15,7,17,T,6,Fog,130
2012-3-13,84,77,69,72,69,67,100,78,55,30.12,30.07,30.01,10,6,0,26,16,33,0.00,6,Fog,147
2012-3-14,85,78,71,70,68,64,93,74,55,30.12,30.07,30.02,10,9,6,30,19,37,0.00,6,,147
2012-3-15,85,79,72,70,68,66,93,74,55,30.15,30.09,30.04,10,10,8,26,19,33,0.00,7,,141
2012-3-16,85,78,71,70,68,66,93,76,58,30.12,30.06,29.99,10,10,8,29,20,35,0.00,5,,145
2012-3-17,84,77,69,70,67,65,97,78,58,30.04,29.99,29.94,10,10,10,31,20,37,0.00,4,,151
2012-3-18,84,78,72,71,69,67,93,76,58,30.01,29.94,29.83,10,10,6,38,22,45,T,7,Rain,144
2012-3-19,86,79,72,70,69,66,90,76,61,29.90,29.76,29.62,10,10,9,40,28,48,0.00,6,,156
2012-3-20,75,68,61,70,59,50,97,73,49,29.87,29.71,29.53,10,10,4,39,16,54,0.54,7,Rain-Thunderstorm,8
2012-3-21,81,69,57,54,43,26,80,47,14,29.97,29.90,29.84,10,10,10,21,8,25,0.00,3,,310
2012-3-22,86,69,51,58,50,43,89,58,26,29.98,29.93,29.85,10,10,10,22,11,29,0.00,0,,175
2012-3-23,82,69,55,66,61,55,100,77,54,30.03,29.97,29.92,10,6,0,15,8,,0.00,3,Fog,115
2012-3-24,84,75,66,68,66,63,93,74,55,30.02,29.98,29.95,10,10,7,15,7,21,0.00,5,,129
2012-3-25,84,74,64,68,65,60,97,71,44,30.06,30.01,29.96,10,10,5,15,7,20,0.00,4,Fog,127
2012-3-26,85,73,60,67,63,56,100,72,44,30.07,30.02,29.95,10,10,6,20,9,25,0.00,2,Fog,131
2012-3-27,84,74,64,68,65,62,93,74,55,30.05,30.00,29.96,10,10,10,24,14,30,0.00,3,,133
2012-3-28,87,78,69,69,67,64,93,71,48,30.01,29.96,29.89,10,10,10,25,16,31,T,4,Thunderstorm,145
2012-3-29,89,79,68,72,69,64,93,72,50,29.94,29.85,29.79,10,9,2,30,9,36,0.45,5,Rain-Hail-Thunderstorm,151
2012-3-30,88,78,67,70,65,60,87,67,46,29.89,29.83,29.77,10,10,10,25,10,32,0.00,1,,161
2012-3-31,93,83,72,72,69,56,93,62,30,29.89,29.84,29.79,10,8,6,29,11,33,0.00,4,,152